Regional Weather Roundup
Issued by NWS

Home | Current Version | Previous Version | Text Only | Print | Product List | Glossary On
Versions: 1 2 3 4 5 6 7 8 9 10 11 12 13 14 15 16 17 18 19 20 21 22 23 24 25 26 27 28 29 30 31 32 33 34 35 36 37 38 39 40 41 42 43 44 45 46 47 48 49 50
000
ASUS43 KMKX 230121
RWRWI

WISCONSIN REGIONAL WEATHER ROUNDUP
NATIONAL WEATHER SERVICE MILWAUKEE/SULLIVAN WI
800 PM CDT TUE AUG 22 2017

NOTE: "FAIR" INDICATES FEW OR NO CLOUDS BELOW 12,000 FEET WITH NO
SIGNIFICANT WEATHER AND/OR OBSTRUCTIONS TO VISIBILITY.

WIZ001-002-006>008-014>016-023>028-230200-
NORTHWEST WISCONSIN

CITY           SKY/WX    TMP DP  RH WIND       PRES   REMARKS
SUPERIOR ARPT    N/A     64  53  68 W10       29.96S
ASHLAND        CLOUDY    63  53  70 W10       29.95R
HAYWARD        CLOUDY    63  54  72 CALM      29.98S
SIREN          CLOUDY    66  49  55 W6        30.00S
CUMBERLAND     PTCLDY    59  48  67 W6        30.00S
RICE LAKE      MOCLDY    63  49  60 W5        30.01S
CHETEK         CLEAR     65  49  56 W6        30.00R
LADYSMITH      PTCLDY    62  52  68 W6        30.00S
EAU CLAIRE     CLEAR     65  48  54 W7        29.99S
MENOMONIE      CLEAR     65  50  57 W5        30.01S
NEW RICHMOND   CLEAR     63  47  57 W7        30.02S
OSCEOLA        CLEAR     65  50  59 W5        30.04S
$$

WIZ003>005-009-010-017-018-230200-
NORTH CENTRAL WISCONSIN

CITY           SKY/WX    TMP DP  RH WIND       PRES   REMARKS
MANITOWISH WTR MOCLDY    59  52  77 W9        29.94S
ARBOR VITAE    PTCLDY    62  52  70 W10       29.93F
WOODRUFF       PTCLDY    62  52  70 W10       29.93F
RHINELANDER    CLEAR     60  51  72 W10G20    29.95R
EAGLE RIVER    CLOUDY    60  49  65 W12       29.92S
LAND O LAKES   CLOUDY    57  53  85 W9        29.94S
PHILLIPS       CLOUDY    59  52  78 W3        29.97R
TOMAHAWK         N/A     58  49  72 W7        29.96S
MEDFORD        MOCLDY    62  49  61 W8        29.98S
MERRILL        PTCLDY    63  48  59 NW7       29.96R
$$

WIZ029-030-035-036-043>047-230200-
CENTRAL WISCONSIN

CITY           SKY/WX    TMP DP  RH WIND       PRES   REMARKS
WAUSAU         CLEAR     65  48  54 NW12      29.95R
MOSINEE        PTCLDY    64  48  55 NW10G16   29.97S
MARSHFIELD     PTCLDY    63  47  55 NW10      29.98R
STEVENS POINT  CLEAR     64  47  52 NW7       29.97R
WAUPACA        CLEAR     69  47  45 W8        29.95R
WAUTOMA        PTCLDY    67  50  54 W6        29.96S
WISC RAPIDS    CLEAR     66  49  54 NW8       29.98R
CAMP DOUGLAS   PTCLDY    63  52  67 W6        29.98S
$$

WIZ011>013-019>022-031-037>040-048>050-230200-
NORTHEAST WISCONSIN

CITY           SKY/WX    TMP DP  RH WIND       PRES   REMARKS
ANTIGO         PTCLDY    59  49  68 W8        29.95R
SHAWANO        CLEAR     67  50  54 NW9G18    29.92R
OCONTO         PTCLDY    65  50  59 NW5       29.89S
STURGEON BAY   CLEAR     66  52  60 W10       29.90R
GREEN BAY      MOCLDY    64  56  75 NW6       29.91R
MANITOWOC      PTCLDY    67  50  54 W7        29.91S
APPLETON       PTCLDY    66  45  45 W10       29.92R
CLINTONVILLE   CLEAR     64  45  48 NW7       29.93R
OSHKOSH        PTCLDY    68  48  48 NW12      29.93S
$$

WIZ032>034-041-042-053>061-230200-
SOUTHWEST WISCONSIN

CITY           SKY/WX    TMP DP  RH WIND       PRES   REMARKS
LA CROSSE      PTCLDY    72  52  49 NW10      30.00R
SPARTA         CLEAR     64  53  67 W3        30.01R
VIROQUA        MOCLDY    63  54  72 W6        30.02S
BOSCOBEL       CLEAR     67  51  56 W3        30.01F
PRAIRIE DU CHI CLEAR     68  48  49 W6        30.02S
PLATTEVILLE    CLEAR     64  53  68 NW5       30.03R
$$

WIZ056-057-062-063-064-067-068-230200-
SOUTH CENTRAL WISCONSIN

CITY           SKY/WX    TMP DP  RH WIND       PRES   REMARKS
REEDSBURG      PTCLDY    65  51  58 W3        29.98F
BARABOO/DELLS  PTCLDY    65  48  54 W5        29.98S
LONE ROCK      CLEAR     66  53  63 NW5       30.00S
MINERAL POINT  CLEAR     64  52  63 W5        30.02S
MADISON        PTCLDY    67  51  56 W3        29.98R
MIDDLETON      CLEAR     64  53  66 W6        30.00S
WATERTOWN      CLEAR     65  53  64 W3        29.96S
MONROE         CLEAR     64  50  59 W7        30.00S
JANESVILLE     PTCLDY    64  52  63 NW7       29.98R
$$

WIZ051-052-058>065-066-070>072-230200-
SOUTHEAST WISCONSIN

CITY           SKY/WX    TMP DP  RH WIND       PRES   REMARKS
MILWAUKEE      PTCLDY    72  49  44 NW10      29.94S
WAUKESHA       CLEAR     64  48  55 W9        29.97R
MILWAUKEE/TIMM CLEAR     68  46  45 W6        29.96R
RACINE         CLEAR     69  50  50 NW3       29.97R
KENOSHA        CLEAR     66  50  56 NW7       29.96R
FOND DU LAC    MOCLDY    67  48  50 W6        29.95R
SHEBOYGAN      PTCLDY    63  55  75 W5        29.93R
WEST BEND      CLEAR     64  48  55 W7        29.95S
JUNEAU         PTCLDY    65  51  59 W5        29.97S
$$

LSZ147-162-230200-
LAKE SUPERIOR

STATION/POSITION TIME  TEMP    WIND        PRES    WAVE
                       AIR SEA DIR/SP/G            HT/PER
                 (UTC) (F)     (DEG/KT/KT) (MB)    (FT/S)
W MID LAKE BUOY  0050   61 59  280/ 10/ 14 1011.2R   3/ 4
DEVILS ISLAND    0100   63     280/ 14/ 16 1013.1R
SAXON HARBOR     0040   65     340/ 12/ 15 1013.2R
$$

LMZ867-665-643>646-230200-
LAKE MICHIGAN

STATION/POSITION TIME  TEMP    WIND        PRES    WAVE
                       AIR SEA DIR/SP/G            HT/PER
                 (UTC) (F)     (DEG/KT/KT) (MB)    (FT/S)
S GREEN BAY BUOY 0100   69 71  300/ 14/ 17 1012.3
N MID LAKE BUOY  0050   68 67  290/ 17/ 21 1010.6R   3/ 4
NORTHPORT PIER   0040   68     290/  8/ 13 1010.8R
KEWAUNEE LAKESHO 0100   65     310/  5/  7 1011.7
SHEBOYGAN LAKESH 0100   70     270/  8/ 10 1012.7R
PORT WASHINGTON  0030   72     290/  3/  7 1014.2S
ATWATER BUOY     0009   72 68  300/ 12/ 16 1013.9R
MILWAUKEE LAKESH 0100   71     300/  8/ 10   N/A
S MID LAKE BUOY  0050   72 71  340/ 16/ 17 1013.1R   4/ 5
KENOSHA   LAKESH 0100   71     310/  9/ 13 1013.9
$$

TC  - TEMPERATURE IN CELSIUS
VSB - VISIBILITY IN STATUTE MILES
WCI - WIND CHILL INDEX
HX  - HEAT INDEX





USA.gov is the U.S. government's official web portal to all federal, state and local government web resources and services.